Orbital Elements at Epoch 2459200.5 (2020-Dec-17.0) TDB
Reference: JPL 19 (heliocentric ecliptic J2000)
Element | Value | Uncertainty (1-sigma) | Units |
e | .1100305965398959 | 4.732e-08 | |
a | 2.986207833273155 | 3.0629e-08 | au |
q | 2.657633603986 | 1.4302e-07 | au |
i | 10.16210185707094 | 5.5955e-06 | deg |
node | 276.6094270698713 | 3.7262e-05 | deg |
peri | 319.4764164862817 | 4.9978e-05 | deg |
M | 45.35964210978955 | 3.1961e-05 | deg |
tp | 2458963.009855949262 (2020-Apr-23.50985595) | 0.00016813 | TDB |
period | 1884.857284617193 5.16 | 2.8999e-05 7.939e-08 | d yr |
n | .1909958928657639 | 2.9385e-09 | deg/d |
Q | 3.31478206256031 | 3.3999e-08 | au |
|
| | Orbit Determination Parameters
Additional Information
|